Location: Black Swamp Observatory
(41.3920°N, 84.1250°W)
Time: 11:49:30
(UTC-04:00)

Vanguard 2 - Pass Details

Date: 26 January 2022
Orbit: 552 x 2935 km, 32.9° (Epoch: 24 May)

Event Time Altitude Azimuth Distance (km) Brightness Sun altitude
Exits shadow 03:02:07 16° 160° (SSE) 5,240 11.6 -53.7°
Drops below altitude 10° 03:04:41 10° 155° (SSE) 5,663 11.9 -53.3°
Sets 03:09:30 0° 147° (SSE) 6,522 12.3 -52.5°
